Location: Moondance
(40.1328°N, 106.5113°W)
Time: 14:56:04
(UTC-07:00)

Envisat - Visible Passes

Search period start: 23 January 2018 00:00
Search period end: 02 February 2018 00:00
Orbit: 764 x 766 km, 98.2° (Epoch: 23 January)

Date Brightness Start Highest point End Pass type
(mag) Time Alt. Az. Time Alt. Az. Time Alt. Az.
23 Jan 4.7 18:16:42 13° NE 18:16:42 13° NE 18:18:21 10° NNE visible
23 Jan 4.5 19:56:53 28° NNW 19:56:53 28° NNW 19:59:16 10° NNW visible
24 Jan 3.9 19:19:27 33° NNE 19:19:27 33° NNE 19:22:26 10° N visible
24 Jan 5.8 20:59:38 12° NW 20:59:38 12° NW 21:00:15 10° NW visible
25 Jan 4.2 18:42:01 22° NE 18:42:01 22° NE 18:45:03 10° NNE visible
25 Jan 4.8 20:22:12 25° NW 20:22:12 25° NW 20:24:37 10° NNW visible
26 Jan 4.8 18:04:34 11° ENE 18:04:50 11° ENE 18:06:11 10° NE visible
26 Jan 3.7 19:44:45 43° NNW 19:44:45 43° NNW 19:48:09 10° NNW visible
27 Jan 3.5 19:07:18 37° NE 19:07:18 37° NE 19:11:10 10° N visible
27 Jan 5.4 20:47:29 19° WNW 20:47:29 19° WNW 20:49:35 10° NW visible
28 Jan 4.2 18:29:50 19° ENE 18:30:04 19° ENE 18:33:33 10° NNE visible
28 Jan 4.1 20:10:02 40° NW 20:10:02 40° NW 20:13:37 10° NNW visible
29 Jan 3.0 19:32:33 63° NNE 19:32:33 63° NNE 19:37:00 10° N visible
29 Jan 5.9 21:12:44 12° WNW 21:12:44 12° WNW 21:13:37 10° WNW visible
30 Jan 3.6 18:55:04 32° ENE 18:55:24 32° ENE 18:59:52 10° N visible
30 Jan 4.8 20:35:15 27° WNW 20:35:15 27° WNW 20:38:46 10° NW visible
31 Jan 4.5 18:17:35 14° E 18:19:04 15° ENE 18:21:56 10° NNE visible
31 Jan 3.3 19:57:46 65° W 19:57:46 65° W 20:02:34 10° NNW visible
01 Feb 3.0 19:20:17 52° E 19:20:51 56° ENE 19:25:48 10° N visible
01 Feb 5.6 21:00:28 16° W 21:00:28 16° W 21:03:20 10° NW visible
